Weather History for Newport, AR

Change the Weather History Date:

Tuesday, February 25, 2014

  Actual Average (KJBR) Record (KJBR)
Temperature  
Mean Temperature 38 °F 44 °F  
Max Temperature 45 °F 54 °F 82 °F (1918)
Min Temperature 31 °F 34 °F 10 °F (1965)
Degree Days  
Heating Degree Days 27 21  
Month to date heating degree days 598  
Since 1 July heating degree days 2894  
Cooling Degree Days 0 0  
Month to date cooling degree days 0  
Year to date cooling degree days 0  
Moisture  
Dew Point 26 °F    
Average Humidity 62    
Maximum Humidity 82    
Minimum Humidity 46    
Precipitation  
Precipitation 0.00 in 0.13 in 3.00 in (1899)
Month to date precipitation 3.33  
Year to date precipitation 6.76  
Snow  
Snow 0.00 in - 8.00 in (1979)
Month to date snowfall  
Since 1 July snowfall  
Snow Depth -    
Sea Level Pressure  
Sea Level Pressure 30.20 in    
Wind  
Wind Speed 11 mph (NNE)    
Max Wind Speed 18 mph    
Max Gust Speed -    
Visibility 10 miles    
Events Rain    
T = Trace of Precipitation, MM = Missing Value Source: NWS Daily Summary

Daily Weather History Graph

Daily Weather History Graph

Search for Another Location

Airport:

Trip Planner

Search our weather history database for the weather conditions in past years. The results will help you decide how hot, cold, wet, or windy it might be!

Date:

Astronomy

Feb. 25, 2014 Rise Set
Actual Time 6:39 AM CST 5:56 PM CST
Civil Twilight 6:13 AM CST 6:22 PM CST
Nautical Twilight 5:44 AM CST 6:51 PM CST
Astronomical Twilight 5:14 AM CST 7:21 PM CST
Moon 3:29 AM CST (2/25) 2:07 PM CST (2/25)
Length of Visible Light 12h 08m
Length of Day
11h 16m
Waning Crescent, 18% of the Moon is Illuminated
Feb 25
Waning Crescent
Mar 1
New
Mar 8
First Quarter
Mar 16
Full
Mar 23
Last Quarter

Hourly Weather History & Observations

Time (CST) Temp. Windchill Dew Point Humidity Pressure Visibility Wind Dir Wind Speed Gust Speed Precip Events Conditions
12:56 AM 37.9 °F 32.7 °F 28.0 °F 68% 30.18 in 10.0 mi NE 6.9 mph - 0.00 in Rain Light Rain
1:56 AM 37.9 °F 32.7 °F 28.0 °F 68% 30.19 in 10.0 mi North 6.9 mph - 0.00 in   Overcast
2:56 AM 37.9 °F 31.5 °F 27.1 °F 65% 30.19 in 10.0 mi North 9.2 mph - N/A   Overcast
3:56 AM 36.9 °F 30.7 °F 28.0 °F 70% 30.19 in 10.0 mi NNE 8.1 mph - N/A   Overcast
4:56 AM 32.0 °F 24.2 °F 25.2 °F 76% 30.20 in 10.0 mi North 9.2 mph - N/A   Partly Cloudy
5:56 AM 31.1 °F 26.4 °F 26.1 °F 82% 30.20 in 10.0 mi North 4.6 mph - N/A   Partly Cloudy
6:56 AM 32.9 °F 24.1 °F 25.2 °F 73% 30.21 in 10.0 mi North 11.5 mph - N/A   Overcast
7:56 AM 34.0 °F 26.6 °F 25.2 °F 70% 30.22 in 10.0 mi NE 9.2 mph - N/A   Partly Cloudy
8:56 AM 36.9 °F 27.5 °F 24.1 °F 60% 30.24 in 10.0 mi NE 16.1 mph - N/A   Clear
9:56 AM 38.8 °F 30.0 °F 25.2 °F 58% 30.25 in 10.0 mi NNE 16.1 mph - N/A   Clear
10:56 AM 41.9 °F 34.0 °F 25.2 °F 52% 30.24 in 10.0 mi NNE 16.1 mph - N/A   Clear
11:56 AM 43.9 °F 36.5 °F 24.1 °F 46% 30.23 in 10.0 mi NNE 16.1 mph - N/A   Clear
12:56 PM 43.9 °F 36.2 °F 24.1 °F 46% 30.18 in 10.0 mi NNE 17.3 mph - N/A   Clear
1:56 PM 45.9 °F 39.4 °F 27.1 °F 48% 30.17 in 10.0 mi North 15.0 mph - N/A   Clear
2:56 PM 45.9 °F 39.4 °F 29.1 °F 52% 30.17 in 10.0 mi NNE 15.0 mph - N/A   Clear
3:56 PM 45.0 °F 38.9 °F 27.1 °F 50% 30.15 in 10.0 mi ENE 12.7 mph - N/A   Mostly Cloudy
4:56 PM 43.0 °F 35.7 °F 27.1 °F 54% 30.14 in 10.0 mi ENE 15.0 mph - N/A   Overcast
5:56 PM 41.9 °F 34.6 °F 28.0 °F 58% 30.15 in 10.0 mi NE 13.8 mph - N/A   Overcast
6:56 PM 41.0 °F 33.1 °F 28.0 °F 60% 30.17 in 10.0 mi NE 15.0 mph - N/A   Overcast
7:56 PM 38.8 °F 32.6 °F 29.1 °F 68% 30.19 in 10.0 mi ENE 9.2 mph - N/A   Overcast
8:56 PM 36.9 °F 28.7 °F 27.1 °F 68% 30.20 in 10.0 mi ENE 12.7 mph - N/A   Overcast
9:56 PM 34.9 °F 24.9 °F 24.1 °F 65% 30.21 in 10.0 mi NNE 16.1 mph - N/A   Scattered Clouds
10:56 PM 32.9 °F 23.2 °F 25.2 °F 73% 30.21 in 10.0 mi NNE 13.8 mph - N/A   Clear
11:56 PM 32.0 °F 20.5 °F 23.0 °F 69% 30.22 in 10.0 mi NE 18.4 mph - N/A   Overcast